Location: Unnamed
(42.1164°N, 2.7652°E)
Time: 20:53:56
(UTC+02:00)

ISS - Pass Details

Date: 15 May 2021
Orbit: 417 x 422 km, 51.6° (Epoch: 14 June)

Event Time Altitude Azimuth Distance (km) Brightness Sun altitude
Rises 23:35:14 0° 258° (WSW) 2,357 0.3 -21.8°
Reaches altitude 10° 23:37:27 10° 268° (W) 1,497 -0.6 -22.1°
Maximum altitude 23:40:33 34° 335° (NNW) 710 -2.0 -22.4°
Drops below altitude 10° 23:43:41 10° 43° (NE) 1,505 -0.8 -22.7°
Sets 23:45:55 0° 53° (NE) 2,373 0.2 -22.9°
